Year,Month,Day,Hour,Minute,Value (Times are PST for windgust in km/hr)
2018,12,17,00,00,20.90
2018,12,17,00,01,20.90
2018,12,17,00,02,20.90
2018,12,17,00,03,19.30
2018,12,17,00,04,19.30
2018,12,17,00,05,19.30
2018,12,17,00,06,19.30
2018,12,17,00,07,19.30
2018,12,17,00,08,19.30
2018,12,17,00,09,20.90
2018,12,17,00,10,20.90
2018,12,17,00,11,20.90
2018,12,17,00,12,22.50
2018,12,17,00,13,25.70
2018,12,17,00,14,24.20
2018,12,17,00,15,25.70
2018,12,17,00,16,24.20
2018,12,17,00,17,24.20
2018,12,17,00,18,24.20
2018,12,17,00,19,22.50
2018,12,17,00,20,24.20
2018,12,17,00,21,25.70
2018,12,17,00,22,24.20
2018,12,17,00,23,24.20
2018,12,17,00,24,20.90
2018,12,17,00,25,19.30
2018,12,17,00,26,22.50
2018,12,17,00,27,25.70
2018,12,17,00,28,24.20
2018,12,17,00,29,24.20
2018,12,17,00,30,24.20
2018,12,17,00,31,24.20
2018,12,17,00,32,22.50
2018,12,17,00,33,22.50
2018,12,17,00,34,22.50
2018,12,17,00,35,24.20
2018,12,17,00,36,22.50
2018,12,17,00,37,20.90
2018,12,17,00,38,20.90
2018,12,17,00,39,19.30
2018,12,17,00,40,22.50
2018,12,17,00,41,25.70
2018,12,17,00,42,24.20
2018,12,17,00,43,25.70
2018,12,17,00,44,25.70
2018,12,17,00,45,25.70
2018,12,17,00,46,25.70
2018,12,17,00,47,22.50
2018,12,17,00,48,24.20
2018,12,17,00,49,24.20
2018,12,17,00,50,22.50
2018,12,17,00,51,19.30
2018,12,17,00,52,19.30
2018,12,17,00,53,24.20
2018,12,17,00,54,24.20
2018,12,17,00,55,22.50
2018,12,17,00,56,20.90
2018,12,17,00,57,20.90
2018,12,17,00,58,20.90
2018,12,17,00,59,19.30
2018,12,17,01,00,19.30
2018,12,17,01,01,20.90
2018,12,17,01,02,20.90
2018,12,17,01,03,19.30
2018,12,17,01,04,19.30
2018,12,17,01,05,16.10
2018,12,17,01,06,16.10
2018,12,17,01,07,14.50
2018,12,17,01,08,16.10
2018,12,17,01,09,16.10
2018,12,17,01,10,16.10
2018,12,17,01,11,16.10
2018,12,17,01,12,17.70
2018,12,17,01,13,17.70
2018,12,17,01,14,16.10
2018,12,17,01,15,19.30
2018,12,17,01,16,19.30
2018,12,17,01,17,17.70
2018,12,17,01,18,14.50
2018,12,17,01,19,17.70
2018,12,17,01,20,17.70
2018,12,17,01,21,19.30
2018,12,17,01,22,22.50
2018,12,17,01,23,22.50
2018,12,17,01,24,24.20
2018,12,17,01,25,25.70
2018,12,17,01,26,24.20
2018,12,17,01,27,24.20
2018,12,17,01,28,24.20
2018,12,17,01,29,24.20
2018,12,17,01,30,25.70
2018,12,17,01,31,25.70
2018,12,17,01,32,24.20
2018,12,17,01,33,24.20
2018,12,17,01,34,25.70
2018,12,17,01,35,25.70
2018,12,17,01,36,25.70
2018,12,17,01,37,24.20
2018,12,17,01,38,24.20
2018,12,17,01,39,22.50
2018,12,17,01,40,20.90
2018,12,17,01,41,19.30
2018,12,17,01,42,20.90
2018,12,17,01,43,20.90
2018,12,17,01,44,22.50
2018,12,17,01,45,22.50
2018,12,17,01,46,22.50
2018,12,17,01,47,22.50
2018,12,17,01,48,24.20
2018,12,17,01,49,22.50
2018,12,17,01,50,22.50
2018,12,17,01,51,19.30
2018,12,17,01,52,20.90
2018,12,17,01,53,20.90
2018,12,17,01,54,20.90
2018,12,17,01,55,19.30
2018,12,17,01,56,20.90
2018,12,17,01,57,19.30
2018,12,17,01,58,19.30
2018,12,17,01,59,19.30
2018,12,17,02,00,17.70
2018,12,17,02,01,17.70
2018,12,17,02,02,17.70
2018,12,17,02,03,16.10
2018,12,17,02,04,16.10
2018,12,17,02,05,14.50
2018,12,17,02,06,14.50
2018,12,17,02,07,14.50
2018,12,17,02,08,14.50
2018,12,17,02,09,14.50
2018,12,17,02,10,14.50
2018,12,17,02,11,14.50
2018,12,17,02,12,14.50
2018,12,17,02,13,14.50
2018,12,17,02,14,14.50
2018,12,17,02,15,14.50
2018,12,17,02,16,14.50
2018,12,17,02,17,14.50
2018,12,17,02,18,16.10
2018,12,17,02,19,16.10
2018,12,17,02,20,16.10
2018,12,17,02,21,16.10
2018,12,17,02,22,14.50
2018,12,17,02,23,14.50
2018,12,17,02,24,12.90
2018,12,17,02,25,12.90
2018,12,17,02,26,12.90
2018,12,17,02,27,12.90
2018,12,17,02,28,12.90
2018,12,17,02,29,12.90
2018,12,17,02,30,12.90
2018,12,17,02,31,8.10
2018,12,17,02,32,4.80
2018,12,17,02,33,4.80
2018,12,17,02,34,3.20
2018,12,17,02,35,3.20
2018,12,17,02,36,1.60
2018,12,17,02,37,3.20
2018,12,17,02,38,4.80
2018,12,17,02,39,4.80
2018,12,17,02,40,4.80
2018,12,17,02,41,3.20
2018,12,17,02,42,4.80
2018,12,17,02,43,6.40
2018,12,17,02,44,8.10
2018,12,17,02,45,8.10
2018,12,17,02,46,8.10
2018,12,17,02,47,4.80
2018,12,17,02,48,4.80
2018,12,17,02,49,4.80
2018,12,17,02,50,4.80
2018,12,17,02,51,4.80
2018,12,17,02,52,6.40
2018,12,17,02,53,6.40
2018,12,17,02,54,6.40
2018,12,17,02,55,8.10
2018,12,17,02,56,11.30
2018,12,17,02,57,12.90
2018,12,17,02,58,20.90
2018,12,17,02,59,24.20
2018,12,17,03,00,25.70
2018,12,17,03,01,25.70
2018,12,17,03,02,20.90
2018,12,17,03,03,16.10
2018,12,17,03,04,14.50
2018,12,17,03,05,16.10
2018,12,17,03,06,25.70
2018,12,17,03,07,27.40
2018,12,17,03,08,29.00
2018,12,17,03,09,29.00
2018,12,17,03,10,25.70
2018,12,17,03,11,22.50
2018,12,17,03,12,20.90
2018,12,17,03,13,20.90
2018,12,17,03,14,19.30
2018,12,17,03,15,19.30
2018,12,17,03,16,20.90
2018,12,17,03,17,24.20
2018,12,17,03,18,27.40
2018,12,17,03,19,29.00
2018,12,17,03,20,27.40
2018,12,17,03,21,27.40
2018,12,17,03,22,27.40
2018,12,17,03,23,24.20
2018,12,17,03,24,20.90
2018,12,17,03,25,16.10
2018,12,17,03,26,11.30
2018,12,17,03,27,12.90
2018,12,17,03,28,12.90
2018,12,17,03,29,14.50
2018,12,17,03,30,17.70
2018,12,17,03,31,19.30
2018,12,17,03,32,19.30
2018,12,17,03,33,17.70
2018,12,17,03,34,17.70
2018,12,17,03,35,19.30
2018,12,17,03,36,20.90
2018,12,17,03,37,20.90
2018,12,17,03,38,19.30
2018,12,17,03,39,17.70
2018,12,17,03,40,19.30
2018,12,17,03,41,17.70
2018,12,17,03,42,16.10
2018,12,17,03,43,17.70
2018,12,17,03,44,17.70
2018,12,17,03,45,19.30
2018,12,17,03,46,17.70
2018,12,17,03,47,16.10
2018,12,17,03,48,14.50
2018,12,17,03,49,11.30
2018,12,17,03,50,8.10
2018,12,17,03,51,8.10
2018,12,17,03,52,6.40
2018,12,17,03,53,8.10
2018,12,17,03,54,8.10
2018,12,17,03,55,11.30
2018,12,17,03,56,11.30
2018,12,17,03,57,11.30
2018,12,17,03,58,11.30
2018,12,17,03,59,11.30
2018,12,17,04,00,12.90
2018,12,17,04,01,12.90
2018,12,17,04,02,12.90
2018,12,17,04,03,14.50
2018,12,17,04,04,14.50
2018,12,17,04,05,14.50
2018,12,17,04,06,14.50
2018,12,17,04,07,14.50
2018,12,17,04,08,12.90
2018,12,17,04,09,12.90
2018,12,17,04,10,12.90
2018,12,17,04,11,12.90
2018,12,17,04,12,12.90
2018,12,17,04,13,14.50
2018,12,17,04,14,12.90
2018,12,17,04,15,12.90
2018,12,17,04,16,14.50
2018,12,17,04,17,14.50
2018,12,17,04,18,14.50
2018,12,17,04,19,12.90
2018,12,17,04,20,16.10
2018,12,17,04,21,16.10
2018,12,17,04,22,14.50
2018,12,17,04,23,14.50
2018,12,17,04,24,14.50
2018,12,17,04,25,14.50
2018,12,17,04,26,12.90
2018,12,17,04,27,12.90
2018,12,17,04,28,12.90
2018,12,17,04,29,11.30
2018,12,17,04,30,9.60
2018,12,17,04,31,8.10
2018,12,17,04,32,8.10
2018,12,17,04,33,9.60
2018,12,17,04,34,12.90
2018,12,17,04,35,12.90
2018,12,17,04,36,12.90
2018,12,17,04,37,11.30
2018,12,17,04,38,12.90
2018,12,17,04,39,9.60
2018,12,17,04,40,9.60
2018,12,17,04,41,8.10
2018,12,17,04,42,8.10
2018,12,17,04,43,11.30
2018,12,17,04,44,8.10
2018,12,17,04,45,11.30
2018,12,17,04,46,9.60
2018,12,17,04,47,11.30
2018,12,17,04,48,11.30
2018,12,17,04,49,11.30
2018,12,17,04,50,9.60
2018,12,17,04,51,9.60
2018,12,17,04,52,9.60
2018,12,17,04,53,6.40
2018,12,17,04,54,4.80
2018,12,17,04,55,4.80
2018,12,17,04,56,3.20
2018,12,17,04,57,3.20
2018,12,17,04,58,1.60
2018,12,17,05,00,1.60
2018,12,17,05,01,3.20
2018,12,17,05,02,4.80
2018,12,17,05,03,3.20
2018,12,17,05,04,3.20
2018,12,17,05,05,3.20
2018,12,17,05,06,1.60
2018,12,17,05,07,1.60
2018,12,17,05,09,1.60
2018,12,17,05,10,1.60
2018,12,17,05,11,3.20
2018,12,17,05,12,3.20
2018,12,17,05,13,4.80
2018,12,17,05,14,4.80
2018,12,17,05,15,4.80
2018,12,17,05,16,3.20
2018,12,17,05,17,3.20
2018,12,17,05,18,3.20
2018,12,17,05,19,4.80
2018,12,17,05,20,3.20
2018,12,17,05,21,3.20
2018,12,17,05,22,1.60
2018,12,17,05,23,4.80
2018,12,17,05,24,4.80
2018,12,17,05,25,4.80
2018,12,17,05,26,1.60
2018,12,17,05,29,1.60
2018,12,17,05,30,3.20
2018,12,17,05,31,4.80
2018,12,17,05,32,4.80
2018,12,17,05,33,6.40
2018,12,17,05,34,6.40
2018,12,17,05,35,4.80
2018,12,17,05,36,4.80
2018,12,17,05,37,4.80
2018,12,17,05,38,4.80
2018,12,17,05,39,4.80
2018,12,17,05,40,4.80
2018,12,17,05,41,3.20
2018,12,17,05,42,1.60
2018,12,17,05,44,1.60
2018,12,17,05,45,1.60
2018,12,17,05,48,3.20
2018,12,17,05,49,4.80
2018,12,17,05,50,3.20
2018,12,17,05,51,3.20
2018,12,17,05,52,3.20
2018,12,17,05,53,3.20
2018,12,17,05,54,1.60
2018,12,17,05,55,8.10
2018,12,17,05,56,12.90
2018,12,17,05,57,14.50
2018,12,17,05,58,14.50
2018,12,17,05,59,16.10
2018,12,17,06,00,14.50
2018,12,17,06,01,12.90
2018,12,17,06,02,9.60
2018,12,17,06,03,8.10
2018,12,17,06,04,9.60
2018,12,17,06,05,12.90
2018,12,17,06,06,14.50
2018,12,17,06,07,14.50
2018,12,17,06,08,12.90
2018,12,17,06,09,14.50
2018,12,17,06,10,12.90
2018,12,17,06,11,8.10
2018,12,17,06,12,8.10
2018,12,17,06,13,11.30
2018,12,17,06,14,11.30
2018,12,17,06,15,16.10
2018,12,17,06,16,14.50
2018,12,17,06,17,12.90
2018,12,17,06,18,16.10
2018,12,17,06,19,16.10
2018,12,17,06,20,14.50
2018,12,17,06,21,14.50
2018,12,17,06,22,16.10
2018,12,17,06,23,16.10
2018,12,17,06,24,17.70
2018,12,17,06,25,16.10
2018,12,17,06,26,16.10
2018,12,17,06,27,14.50
2018,12,17,06,28,16.10
2018,12,17,06,29,16.10
2018,12,17,06,30,17.70
2018,12,17,06,31,19.30
2018,12,17,06,32,16.10
2018,12,17,06,33,16.10
2018,12,17,06,34,16.10
2018,12,17,06,35,19.30
2018,12,17,06,36,20.90
2018,12,17,06,37,20.90
2018,12,17,06,38,20.90
2018,12,17,06,39,20.90
2018,12,17,06,40,19.30
2018,12,17,06,41,17.70
2018,12,17,06,42,16.10
2018,12,17,06,43,16.10
2018,12,17,06,44,14.50
2018,12,17,06,45,16.10
2018,12,17,06,46,14.50
2018,12,17,06,47,16.10
2018,12,17,06,48,14.50
2018,12,17,06,49,16.10
2018,12,17,06,50,16.10
2018,12,17,06,51,16.10
2018,12,17,06,52,16.10
2018,12,17,06,53,16.10
2018,12,17,06,54,16.10
2018,12,17,06,55,16.10
2018,12,17,06,56,16.10
2018,12,17,06,57,14.50
2018,12,17,06,58,16.10
2018,12,17,06,59,14.50
2018,12,17,07,00,16.10
2018,12,17,07,01,16.10
2018,12,17,07,02,16.10
2018,12,17,07,03,16.10
2018,12,17,07,04,14.50
2018,12,17,07,05,14.50
2018,12,17,07,06,12.90
2018,12,17,07,07,12.90
2018,12,17,07,08,12.90
2018,12,17,07,09,12.90
2018,12,17,07,10,12.90
2018,12,17,07,11,12.90
2018,12,17,07,12,12.90
2018,12,17,07,13,14.50
2018,12,17,07,14,14.50
2018,12,17,07,15,14.50
2018,12,17,07,16,14.50
2018,12,17,07,17,14.50
2018,12,17,07,18,14.50
2018,12,17,07,19,14.50
2018,12,17,07,20,14.50
2018,12,17,07,21,14.50
2018,12,17,07,22,12.90
2018,12,17,07,23,14.50
2018,12,17,07,24,16.10
2018,12,17,07,25,17.70
2018,12,17,07,26,19.30
2018,12,17,07,27,19.30
2018,12,17,07,28,19.30
2018,12,17,07,29,19.30
2018,12,17,07,30,17.70
2018,12,17,07,31,16.10
2018,12,17,07,32,14.50
2018,12,17,07,33,12.90
2018,12,17,07,34,11.30
2018,12,17,07,35,11.30
2018,12,17,07,36,12.90
2018,12,17,07,37,11.30
2018,12,17,07,38,12.90
2018,12,17,07,39,14.50
2018,12,17,07,40,17.70
2018,12,17,07,41,19.30
2018,12,17,07,42,19.30
2018,12,17,07,43,20.90
2018,12,17,07,44,20.90
2018,12,17,07,45,19.30
2018,12,17,07,46,19.30
2018,12,17,07,47,16.10
2018,12,17,07,48,14.50
2018,12,17,07,49,11.30
2018,12,17,07,50,14.50
2018,12,17,07,51,14.50
2018,12,17,07,52,14.50
2018,12,17,07,53,16.10
2018,12,17,07,54,14.50
2018,12,17,07,55,12.90
2018,12,17,07,56,12.90
2018,12,17,07,57,11.30
2018,12,17,07,58,11.30
2018,12,17,07,59,12.90
2018,12,17,08,00,14.50
2018,12,17,08,01,14.50
2018,12,17,08,02,14.50
2018,12,17,08,03,16.10
2018,12,17,08,04,14.50
2018,12,17,08,05,14.50
2018,12,17,08,06,16.10
2018,12,17,08,07,14.50
2018,12,17,08,08,14.50
2018,12,17,08,09,14.50
2018,12,17,08,10,14.50
2018,12,17,08,11,14.50
2018,12,17,08,12,12.90
2018,12,17,08,13,11.30
2018,12,17,08,14,11.30
2018,12,17,08,15,6.40
2018,12,17,08,16,8.10
2018,12,17,08,17,8.10
2018,12,17,08,18,6.40
2018,12,17,08,19,6.40
2018,12,17,08,20,8.10
2018,12,17,08,21,8.10
2018,12,17,08,22,8.10
2018,12,17,08,23,11.30
2018,12,17,08,24,11.30
2018,12,17,08,25,11.30
2018,12,17,08,26,12.90
2018,12,17,08,27,14.50
2018,12,17,08,28,14.50
2018,12,17,08,29,14.50
2018,12,17,08,30,14.50
2018,12,17,08,31,14.50
2018,12,17,08,32,12.90
2018,12,17,08,33,12.90
2018,12,17,08,34,12.90
2018,12,17,08,35,11.30
2018,12,17,08,36,9.60
2018,12,17,08,37,8.10
2018,12,17,08,38,8.10
2018,12,17,08,39,8.10
2018,12,17,08,40,8.10
2018,12,17,08,41,6.40
2018,12,17,08,42,6.40
2018,12,17,08,43,8.10
2018,12,17,08,44,8.10
2018,12,17,08,45,8.10
2018,12,17,08,46,6.40
2018,12,17,08,47,6.40
2018,12,17,08,48,8.10
2018,12,17,08,49,8.10
2018,12,17,08,50,8.10
2018,12,17,08,51,8.10
2018,12,17,08,52,8.10
2018,12,17,08,53,8.10
2018,12,17,08,54,8.10
2018,12,17,08,55,6.40
2018,12,17,08,56,6.40
2018,12,17,08,57,4.80
2018,12,17,08,58,6.40
2018,12,17,08,59,4.80
2018,12,17,09,00,4.80
2018,12,17,09,01,4.80
2018,12,17,09,02,4.80
2018,12,17,09,03,6.40
2018,12,17,09,04,8.10
2018,12,17,09,05,6.40
2018,12,17,09,06,6.40
2018,12,17,09,07,6.40
2018,12,17,09,08,6.40
2018,12,17,09,09,6.40
2018,12,17,09,10,6.40
2018,12,17,09,11,6.40
2018,12,17,09,12,8.10
2018,12,17,09,13,9.60
2018,12,17,09,14,11.30
2018,12,17,09,15,11.30
2018,12,17,09,16,9.60
2018,12,17,09,17,9.60
2018,12,17,09,18,9.60
2018,12,17,09,19,8.10
2018,12,17,09,20,8.10
2018,12,17,09,21,6.40
2018,12,17,09,22,6.40
2018,12,17,09,23,8.10
2018,12,17,09,24,8.10
2018,12,17,09,25,8.10
2018,12,17,09,26,6.40
2018,12,17,09,27,6.40
2018,12,17,09,28,4.80
2018,12,17,09,29,3.20
2018,12,17,09,30,3.20
2018,12,17,09,31,1.60
2018,12,17,09,32,3.20
2018,12,17,09,33,3.20
2018,12,17,09,34,4.80
2018,12,17,09,35,3.20
2018,12,17,09,36,3.20
2018,12,17,09,37,3.20
2018,12,17,09,38,1.60
2018,12,17,09,39,3.20
2018,12,17,09,40,1.60
2018,12,17,09,41,1.60
2018,12,17,09,43,1.60
2018,12,17,09,44,1.60
2018,12,17,09,45,1.60
2018,12,17,09,46,1.60
2018,12,17,09,47,3.20
2018,12,17,09,48,3.20
2018,12,17,09,49,4.80
2018,12,17,09,50,4.80
2018,12,17,09,51,6.40
2018,12,17,09,52,6.40
2018,12,17,09,53,8.10
2018,12,17,09,54,9.60
2018,12,17,09,55,11.30
2018,12,17,09,56,11.30
2018,12,17,09,57,11.30
2018,12,17,09,58,11.30
2018,12,17,09,59,11.30
2018,12,17,10,00,11.30
2018,12,17,10,01,11.30
2018,12,17,10,02,9.60
2018,12,17,10,03,9.60
2018,12,17,10,04,9.60
2018,12,17,10,05,8.10
2018,12,17,10,06,8.10
2018,12,17,10,07,11.30
2018,12,17,10,08,11.30
2018,12,17,10,09,12.90
2018,12,17,10,10,12.90
2018,12,17,10,11,12.90
2018,12,17,10,12,12.90
2018,12,17,10,13,12.90
2018,12,17,10,14,12.90
2018,12,17,10,15,14.50
2018,12,17,10,16,11.30
2018,12,17,10,17,11.30
2018,12,17,10,18,12.90
2018,12,17,10,19,12.90
2018,12,17,10,20,12.90
2018,12,17,10,21,8.10
2018,12,17,10,22,9.60
2018,12,17,10,23,9.60
2018,12,17,10,24,9.60
2018,12,17,10,25,9.60
2018,12,17,10,26,9.60
2018,12,17,10,27,8.10
2018,12,17,10,28,4.80
2018,12,17,10,29,4.80
2018,12,17,10,30,4.80
2018,12,17,10,31,4.80
2018,12,17,10,32,6.40
2018,12,17,10,33,6.40
2018,12,17,10,34,6.40
2018,12,17,10,35,8.10
2018,12,17,10,36,8.10
2018,12,17,10,37,6.40
2018,12,17,10,38,4.80
2018,12,17,10,39,4.80
2018,12,17,10,40,3.20
2018,12,17,10,41,3.20
2018,12,17,10,42,3.20
2018,12,17,10,43,3.20
2018,12,17,10,44,4.80
2018,12,17,10,45,4.80
2018,12,17,10,46,4.80
2018,12,17,10,47,4.80
2018,12,17,10,48,4.80
2018,12,17,10,49,3.20
2018,12,17,10,50,1.60
2018,12,17,10,54,1.60
2018,12,17,10,55,3.20
2018,12,17,10,56,3.20
2018,12,17,10,57,3.20
2018,12,17,10,58,3.20
2018,12,17,10,59,3.20
2018,12,17,11,00,1.60
2018,12,17,11,01,1.60
2018,12,17,11,02,1.60
2018,12,17,11,03,3.20
2018,12,17,11,04,3.20
2018,12,17,11,05,3.20
2018,12,17,11,06,3.20
2018,12,17,11,07,3.20
2018,12,17,11,08,1.60
2018,12,17,11,09,1.60
2018,12,17,11,10,1.60
2018,12,17,11,11,1.60
2018,12,17,11,12,3.20
2018,12,17,11,13,3.20
2018,12,17,11,14,3.20
2018,12,17,11,15,3.20
2018,12,17,11,16,1.60
2018,12,17,11,17,1.60
2018,12,17,11,18,1.60
2018,12,17,11,19,1.60
2018,12,17,11,20,1.60
2018,12,17,11,21,1.60
2018,12,17,11,22,1.60
2018,12,17,11,23,1.60
2018,12,17,11,24,1.60
2018,12,17,11,25,1.60
2018,12,17,11,26,1.60
2018,12,17,11,27,1.60
2018,12,17,11,28,1.60
2018,12,17,11,29,1.60
2018,12,17,11,30,1.60
2018,12,17,11,36,1.60
2018,12,17,11,37,1.60
2018,12,17,11,42,1.60
2018,12,17,11,43,3.20
2018,12,17,11,44,3.20
2018,12,17,11,45,3.20
2018,12,17,11,46,4.80
2018,12,17,11,47,4.80
2018,12,17,11,48,4.80
2018,12,17,11,49,4.80
2018,12,17,11,50,3.20
2018,12,17,11,51,3.20
2018,12,17,11,52,3.20
2018,12,17,11,53,3.20
2018,12,17,11,54,3.20
2018,12,17,11,55,4.80
2018,12,17,11,56,4.80
2018,12,17,11,57,4.80
2018,12,17,11,58,3.20
2018,12,17,11,59,3.20
2018,12,17,12,00,3.20
2018,12,17,12,01,4.80
2018,12,17,12,02,4.80
2018,12,17,12,03,4.80
2018,12,17,12,04,4.80
2018,12,17,12,05,6.40
2018,12,17,12,06,6.40
2018,12,17,12,07,6.40
2018,12,17,12,08,4.80
2018,12,17,12,09,4.80
2018,12,17,12,10,6.40
2018,12,17,12,11,6.40
2018,12,17,12,12,6.40
2018,12,17,12,13,6.40
2018,12,17,12,14,6.40
2018,12,17,12,15,4.80
2018,12,17,12,16,3.20
2018,12,17,12,17,3.20
2018,12,17,12,18,4.80
2018,12,17,12,19,4.80
2018,12,17,12,20,4.80
2018,12,17,12,21,3.20
2018,12,17,12,22,4.80
2018,12,17,12,23,4.80
2018,12,17,12,24,4.80
2018,12,17,12,25,3.20
2018,12,17,12,26,3.20
2018,12,17,12,27,3.20
2018,12,17,12,28,3.20
2018,12,17,12,29,1.60
2018,12,17,12,30,1.60
2018,12,17,12,31,1.60
2018,12,17,12,32,6.40
2018,12,17,12,33,6.40
2018,12,17,12,34,8.10
2018,12,17,12,35,11.30
2018,12,17,12,36,12.90
2018,12,17,12,37,12.90
2018,12,17,12,38,11.30
2018,12,17,12,39,8.10
2018,12,17,12,40,6.40
2018,12,17,12,41,6.40
2018,12,17,12,42,6.40
2018,12,17,12,43,6.40
2018,12,17,12,44,6.40
2018,12,17,12,45,6.40
2018,12,17,12,46,4.80
2018,12,17,12,47,3.20
2018,12,17,12,48,4.80
2018,12,17,12,49,6.40
2018,12,17,12,50,6.40
2018,12,17,12,51,6.40
2018,12,17,12,52,6.40
2018,12,17,12,53,6.40
2018,12,17,12,54,4.80
2018,12,17,12,55,4.80
2018,12,17,12,56,3.20
2018,12,17,12,57,1.60
2018,12,17,13,00,1.60
2018,12,17,13,02,3.20
2018,12,17,13,03,4.80
2018,12,17,13,04,8.10
2018,12,17,13,05,8.10
2018,12,17,13,06,6.40
2018,12,17,13,07,4.80
2018,12,17,13,08,4.80
2018,12,17,13,09,4.80
2018,12,17,13,10,4.80
2018,12,17,13,11,4.80
2018,12,17,13,12,4.80
2018,12,17,13,13,6.40
2018,12,17,13,14,4.80
2018,12,17,13,15,4.80
2018,12,17,13,16,4.80
2018,12,17,13,17,4.80
2018,12,17,13,18,4.80
2018,12,17,13,19,3.20
2018,12,17,13,20,3.20
2018,12,17,13,21,3.20
2018,12,17,13,22,3.20
2018,12,17,13,23,4.80
2018,12,17,13,24,4.80
2018,12,17,13,25,4.80
2018,12,17,13,26,4.80
2018,12,17,13,27,4.80
2018,12,17,13,28,4.80
2018,12,17,13,29,4.80
2018,12,17,13,30,4.80
2018,12,17,13,31,6.40
2018,12,17,13,32,8.10
2018,12,17,13,33,8.10
2018,12,17,13,34,6.40
2018,12,17,13,35,6.40
2018,12,17,13,36,6.40
2018,12,17,13,37,8.10
2018,12,17,13,38,8.10
2018,12,17,13,39,11.30
2018,12,17,13,40,12.90
2018,12,17,13,41,12.90
2018,12,17,13,42,12.90
2018,12,17,13,43,12.90
2018,12,17,13,44,12.90
2018,12,17,13,45,14.50
2018,12,17,13,46,16.10
2018,12,17,13,47,16.10
2018,12,17,13,48,14.50
2018,12,17,13,49,14.50
2018,12,17,13,50,12.90
2018,12,17,13,51,12.90
2018,12,17,13,52,12.90
2018,12,17,13,53,11.30
2018,12,17,13,54,14.50
2018,12,17,13,55,14.50
2018,12,17,13,56,12.90
2018,12,17,13,57,11.30
2018,12,17,13,58,8.10
2018,12,17,13,59,11.30
2018,12,17,14,00,11.30
2018,12,17,14,01,12.90
2018,12,17,14,02,12.90
2018,12,17,14,03,11.30
2018,12,17,14,04,11.30
2018,12,17,14,05,12.90
2018,12,17,14,06,14.50
2018,12,17,14,07,14.50
2018,12,17,14,08,12.90
2018,12,17,14,09,12.90
2018,12,17,14,10,14.50
2018,12,17,14,11,16.10
2018,12,17,14,12,14.50
2018,12,17,14,13,14.50
2018,12,17,14,14,12.90
2018,12,17,14,15,12.90
2018,12,17,14,16,12.90
2018,12,17,14,17,12.90
2018,12,17,14,18,12.90
2018,12,17,14,19,11.30
2018,12,17,14,20,12.90
2018,12,17,14,21,11.30
2018,12,17,14,22,11.30
2018,12,17,14,23,8.10
2018,12,17,14,24,6.40
2018,12,17,14,25,9.60
2018,12,17,14,26,9.60
2018,12,17,14,27,11.30
2018,12,17,14,28,12.90
2018,12,17,14,29,11.30
2018,12,17,14,30,11.30
2018,12,17,14,31,11.30
2018,12,17,14,32,8.10
2018,12,17,14,33,6.40
2018,12,17,14,34,6.40
2018,12,17,14,35,8.10
2018,12,17,14,36,8.10
2018,12,17,14,37,8.10
2018,12,17,14,38,9.60
2018,12,17,14,39,8.10
2018,12,17,14,40,9.60
2018,12,17,14,41,6.40
2018,12,17,14,42,3.20
2018,12,17,14,43,6.40
2018,12,17,14,44,11.30
2018,12,17,14,45,11.30
2018,12,17,14,46,12.90
2018,12,17,14,47,14.50
2018,12,17,14,48,9.60
2018,12,17,14,49,14.50
2018,12,17,14,50,19.30
2018,12,17,14,51,22.50
2018,12,17,14,52,16.10
2018,12,17,14,53,14.50
2018,12,17,14,54,14.50
2018,12,17,14,55,19.30
2018,12,17,14,56,17.70
2018,12,17,14,57,25.70
2018,12,17,14,58,24.20
2018,12,17,14,59,19.30
2018,12,17,15,00,20.90
2018,12,17,15,01,27.40
2018,12,17,15,02,27.40
2018,12,17,15,03,24.20
2018,12,17,15,04,32.20
2018,12,17,15,05,37.00
2018,12,17,15,06,37.00
2018,12,17,15,07,37.00
2018,12,17,15,08,38.60
2018,12,17,15,09,43.50
2018,12,17,15,10,38.60
2018,12,17,15,11,38.60
2018,12,17,15,12,48.30
2018,12,17,15,13,53.10
2018,12,17,15,14,53.10
2018,12,17,15,15,54.70
2018,12,17,15,16,51.50
2018,12,17,15,17,51.50
2018,12,17,15,18,51.50
2018,12,17,15,19,49.90
2018,12,17,15,20,48.30
2018,12,17,15,21,49.90
2018,12,17,15,22,49.90
2018,12,17,15,23,48.30
2018,12,17,15,24,48.30
2018,12,17,15,25,49.90
2018,12,17,15,26,49.90
2018,12,17,15,27,51.50
2018,12,17,15,28,48.30
2018,12,17,15,29,46.70
2018,12,17,15,30,48.30
2018,12,17,15,31,48.30
2018,12,17,15,32,46.70
2018,12,17,15,33,43.50
2018,12,17,15,34,45.10
2018,12,17,15,35,43.50
2018,12,17,15,36,43.50
2018,12,17,15,37,46.70
2018,12,17,15,38,51.50
2018,12,17,15,39,48.30
2018,12,17,15,40,48.30
2018,12,17,15,41,53.10
2018,12,17,15,42,61.20
2018,12,17,15,43,56.30
2018,12,17,15,44,53.10
2018,12,17,15,45,43.50
2018,12,17,15,46,41.80
2018,12,17,15,47,41.80
2018,12,17,15,48,41.80
2018,12,17,15,49,51.50
2018,12,17,15,50,57.90
2018,12,17,15,51,53.10
2018,12,17,15,52,56.30
2018,12,17,15,53,53.10
2018,12,17,15,54,53.10
2018,12,17,15,55,49.90
2018,12,17,15,56,57.90
2018,12,17,15,57,59.50
2018,12,17,15,58,62.70
2018,12,17,15,59,62.70
2018,12,17,16,00,61.20
2018,12,17,16,01,61.20
2018,12,17,16,02,62.70
2018,12,17,16,03,62.70
2018,12,17,16,04,56.30
2018,12,17,16,05,51.50
2018,12,17,16,06,59.50
2018,12,17,16,07,59.50
2018,12,17,16,08,62.70
2018,12,17,16,09,61.20
2018,12,17,16,10,66.00
2018,12,17,16,11,61.20
2018,12,17,16,12,69.20
2018,12,17,16,13,64.40
2018,12,17,16,14,67.60
2018,12,17,16,15,67.60
2018,12,17,16,16,67.60
2018,12,17,16,17,62.70
2018,12,17,16,18,67.60
2018,12,17,16,19,66.00
2018,12,17,16,20,62.70
2018,12,17,16,21,66.00
2018,12,17,16,22,69.20
2018,12,17,16,23,70.80
2018,12,17,16,24,62.70
2018,12,17,16,25,69.20
2018,12,17,16,26,70.80
2018,12,17,16,27,69.20
2018,12,17,16,28,59.50
2018,12,17,16,29,64.40
2018,12,17,16,30,64.40
2018,12,17,16,31,62.70
2018,12,17,16,32,66.00
2018,12,17,16,33,69.20
2018,12,17,16,34,62.70
2018,12,17,16,35,66.00
2018,12,17,16,36,67.60
2018,12,17,16,37,67.60
2018,12,17,16,38,64.40
2018,12,17,16,39,66.00
2018,12,17,16,40,66.00
2018,12,17,16,41,64.40
2018,12,17,16,42,61.20
2018,12,17,16,43,75.60
2018,12,17,16,44,69.20
2018,12,17,16,45,70.80
2018,12,17,16,46,67.60
2018,12,17,16,47,74.00
2018,12,17,16,48,64.40
2018,12,17,16,49,75.60
2018,12,17,16,50,77.30
2018,12,17,16,51,80.50
2018,12,17,16,52,78.80
2018,12,17,16,53,70.80
2018,12,17,16,54,74.00
2018,12,17,16,55,78.80
2018,12,17,16,56,77.30
2018,12,17,16,57,82.10
2018,12,17,16,58,77.30
2018,12,17,16,59,74.00
2018,12,17,17,00,78.80
2018,12,17,17,01,77.30
2018,12,17,17,02,77.30
2018,12,17,17,03,74.00
2018,12,17,17,04,82.10
2018,12,17,17,05,80.50
2018,12,17,17,06,75.60
2018,12,17,17,07,75.60
2018,12,17,17,08,82.10
2018,12,17,17,09,75.60
2018,12,17,17,10,78.80
2018,12,17,17,11,77.30
2018,12,17,17,12,80.50
2018,12,17,17,13,78.80
2018,12,17,17,14,78.80
2018,12,17,17,15,80.50
2018,12,17,17,16,77.30
2018,12,17,17,17,74.00
2018,12,17,17,18,77.30
2018,12,17,17,19,75.60
2018,12,17,17,20,70.80
2018,12,17,17,21,70.80
2018,12,17,17,22,70.80
2018,12,17,17,23,75.60
2018,12,17,17,24,74.00
2018,12,17,17,25,64.40
2018,12,17,17,26,75.60
2018,12,17,17,27,67.60
2018,12,17,17,28,67.60
2018,12,17,17,29,69.20
2018,12,17,17,30,75.60
2018,12,17,17,31,75.60
2018,12,17,17,32,72.40
2018,12,17,17,33,78.80
2018,12,17,17,34,77.30
2018,12,17,17,35,77.30
2018,12,17,17,36,74.00
2018,12,17,17,37,75.60
2018,12,17,17,38,75.60
2018,12,17,17,39,74.00
2018,12,17,17,40,80.50
2018,12,17,17,41,78.80
2018,12,17,17,42,72.40
2018,12,17,17,43,70.80
2018,12,17,17,44,75.60
2018,12,17,17,45,75.60
2018,12,17,17,46,78.80
2018,12,17,17,47,74.00
2018,12,17,17,48,78.80
2018,12,17,17,49,75.60
2018,12,17,17,50,77.30
2018,12,17,17,51,74.00
2018,12,17,17,52,72.40
2018,12,17,17,53,75.60
2018,12,17,17,54,80.50
2018,12,17,17,55,77.30
2018,12,17,17,56,83.70
2018,12,17,17,57,75.60
2018,12,17,17,58,78.80
2018,12,17,17,59,78.80